Weather History for KIWI - March, 2013

Change the Weather History Date:

Sunday, March 3, 2013

  Actual Average Record
Temperature  
Mean Temperature 37 °F -  
Max Temperature 41 °F 35 °F - (-1)
Min Temperature 33 °F 17 °F - (-1)
Degree Days  
Heating Degree Days 28    
Moisture  
Dew Point 30 °F    
Average Humidity 77    
Maximum Humidity 92    
Minimum Humidity 60    
Precipitation  
Precipitation 0.01 in - - ()
Sea Level Pressure  
Sea Level Pressure 29.57 in    
Wind  
Wind Speed 1 mph (North)    
Max Wind Speed 7 mph    
Max Gust Speed -    
Visibility 8 miles    
Events Snow    
Averages and records for this station are not official NWS values.
T = Trace of Precipitation, MM = Missing Value Source: NWS Daily Summary

Daily Weather History Graph

Daily Weather History Graph

Search for Another Location

Airport or City:

Trip Planner

Search our weather history database for the weather conditions in past years. The results will help you decide how hot, cold, wet, or windy it might be!

Date:

Astronomy

Mar. 03, 2013 Rise Set
Actual Time 6:11 AM EST 5:30 PM EST
Civil Twilight 5:43 AM EST 5:59 PM EST
Nautical Twilight 5:09 AM EST 6:32 PM EST
Astronomical Twilight 4:36 AM EST 7:05 PM EST
Moon No Moon Rise 9:10 AM EST (3/3)
Length of Visible Light 12h 15m
Length of Day
11h 18m
Waning Gibbous, 64% of the Moon is Illuminated
Mar 3
Waning Gibbous
Mar 4
Last Quarter
Mar 11
New
Mar 19
First Quarter
Mar 27
Full

Hourly Weather History & Observations

Time (EST) Temp. Windchill Dew Point Humidity Pressure Visibility Wind Dir Wind Speed Gust Speed Precip Events Conditions
12:04 AM 33.8 °F - 30.2 °F 87% 29.61 in 2.0 mi Calm Calm - 0.00 in Snow Light Snow
12:26 AM 33.8 °F 30.8 °F 30.2 °F 87% 29.61 in 5.0 mi Variable 3.5 mph - 0.00 in Snow Light Snow
12:53 AM 33.1 °F - 30.9 °F 92% 29.61 in 5.0 mi Calm Calm - 0.00 in Snow Light Snow
1:53 AM 33.1 °F - 30.9 °F 92% 29.61 in 5.0 mi Calm Calm - 0.00 in   Overcast
2:46 AM 33.8 °F - 30.2 °F 87% 29.59 in 5.0 mi Calm Calm - 0.01 in   Overcast
2:53 AM 33.1 °F - 30.9 °F 92% 29.60 in 6.0 mi Calm Calm - 0.01 in   Overcast
3:26 AM 33.8 °F - 30.2 °F 87% 29.59 in 4.0 mi Calm Calm - 0.00 in Snow Light Snow
3:53 AM 33.1 °F - 30.9 °F 92% 29.60 in 5.0 mi Calm Calm - 0.00 in   Overcast
4:43 AM 33.8 °F - 30.2 °F 87% 29.60 in 6.0 mi Calm Calm - N/A   Overcast
4:53 AM 33.1 °F - 30.9 °F 92% 29.60 in 5.0 mi Calm Calm - N/A   Overcast
5:37 AM 33.8 °F - 30.2 °F 87% 29.60 in 10.0 mi Calm Calm - N/A   Overcast
5:53 AM 33.1 °F - 30.9 °F 92% 29.60 in 10.0 mi Calm Calm - N/A   Overcast
6:53 AM 33.1 °F - 30.9 °F 92% 29.61 in 10.0 mi Calm Calm - N/A   Overcast
7:53 AM 34.0 °F - 32.0 °F 92% 29.61 in 10.0 mi Calm Calm - N/A   Overcast
8:53 AM 35.1 °F 32.2 °F 30.9 °F 85% 29.60 in 10.0 mi Variable 3.5 mph - N/A   Overcast
9:53 AM 37.0 °F 34.5 °F 32.0 °F 82% 29.59 in 10.0 mi Variable 3.5 mph - N/A   Overcast
10:49 AM 39.2 °F 37.0 °F 32.0 °F 75% 29.57 in 10.0 mi Variable 3.5 mph - N/A   Overcast
10:53 AM 39.9 °F 36.7 °F 30.9 °F 70% 29.57 in 10.0 mi Variable 4.6 mph - N/A   Overcast
11:22 AM 39.2 °F 35.0 °F 30.2 °F 70% 29.57 in 10.0 mi Variable 5.8 mph - N/A   Overcast
11:53 AM 39.9 °F 35.1 °F 30.0 °F 68% 29.56 in 10.0 mi Variable 6.9 mph - N/A   Overcast
12:53 PM 41.0 °F 38.0 °F 30.0 °F 65% 29.55 in 10.0 mi Variable 4.6 mph - N/A   Overcast
1:53 PM 41.0 °F 39.0 °F 30.0 °F 65% 29.54 in 10.0 mi Variable 3.5 mph - N/A   Overcast
2:04 PM 41.0 °F - 30.2 °F 65% 29.54 in 10.0 mi Calm Calm - N/A   Overcast
2:21 PM 41.0 °F - 28.4 °F 61% 29.53 in 10.0 mi Calm Calm - N/A   Overcast
2:53 PM 41.0 °F - 28.9 °F 62% 29.53 in 10.0 mi Calm Calm - N/A   Overcast
3:53 PM 41.0 °F - 28.0 °F 60% 29.53 in 10.0 mi Calm Calm - N/A   Overcast
4:53 PM 39.9 °F - 28.0 °F 63% 29.54 in 10.0 mi Calm Calm - N/A   Overcast
5:53 PM 37.9 °F - 28.0 °F 68% 29.54 in 10.0 mi Calm Calm - N/A   Overcast
6:53 PM 37.9 °F - 28.0 °F 68% 29.55 in 10.0 mi Calm Calm - N/A   Overcast
7:53 PM 37.0 °F 34.5 °F 27.0 °F 67% 29.54 in 10.0 mi Variable 3.5 mph - N/A   Overcast
8:53 PM 36.0 °F - 27.0 °F 70% 29.54 in 10.0 mi Calm Calm - N/A   Overcast
9:53 PM 35.1 °F 31.0 °F 26.1 °F 70% 29.53 in 10.0 mi Variable 4.6 mph - N/A   Overcast
10:53 PM 35.1 °F 30.1 °F 25.0 °F 67% 29.52 in 10.0 mi Variable 5.8 mph - N/A   Overcast
11:53 PM 34.0 °F - 25.0 °F 70% 29.52 in 10.0 mi Calm Calm - N/A   Overcast